{"data":{"norad_id":63112,"intl_designator":"2025-039J","name":"STARLINK-11590 [DTC]","alt_names":[],"object_type":"PAYLOAD","status":"ACTIVE","operator":null,"country":"US","launch_date":"2025-02-27","launch_site_code":"AFETR","launch_vehicle":null,"mission":null,"orbit_class":"UNKNOWN","rcs_meters":null,"size_class":null,"mass_kg":null,"dimensions":null,"purposes":["comms"],"wikipedia_slug":null,"has_3d_model":false,"image_url":null,"decayed_at":null,"tle_current":{"epoch":"2026-09-21T00:53:02.828256Z","epoch_age_seconds":115952,"freshness":"FRESH","line1":"1 63112U 25039J   26264.03683829  .00150093  00000+0  11506-2 0  9993","line2":"2 63112  43.0007 139.7905 0002027 254.7843 105.2800 15.70873095 90333","mean_motion":15.70873095,"eccentricity":0.0002027,"inclination_deg":43.0007,"raan_deg":139.7905,"arg_perigee_deg":254.7843,"mean_anomaly_deg":105.28,"bstar":0.0011506,"rev_number":9033,"period_min":91.668767170527,"perigee_km":355.03538077996,"apogee_km":357.76556227092,"semimajor_km":6734.5374715254,"source":"CELESTRAK","updated_at":"2026-09-22T09:00:49.764023Z"}}}